Weather in Subang

Indonesia     6°33′44″S   107°44′48″E
temp.,
°C
wind,
m/s
gust,
m/s
humid.,
%
clouds,
%
prec.,
mm/h
press.,
hPa
HPBL,
m
1 july, fri
fri101:00+22sse22938 0.0 100928
04:00+21s119198 0.0 100812
07:00+22ssw118570 0.0 100943
10:00+28ene2363100 0.0 1010712
13:00+30ene345733 0.0 10081480
16:00+29ene446658 0.0 1006860
19:00+24ese228840 0.0 100829
22:00+23s119113 0.0 101014
2 july, sat
sat201:00+23ssw228812 0.0 100921
04:00+22sse11825 0.0 100813
07:00+23ssw01796 0.0 100940
10:00+29nne116025 0.0 1009746
13:00+31n2354100 0.0 10061279
16:00+30nne346780 0.4 1005550
19:00+25ne0087100 1.0 100711
22:00+23sw22957 2.1 100944
3 july, sun
sun301:00+23ssw119250 2.1 100813
04:00+23s118887 0.0 100712
07:00+24ssw118481 0.0 100939
10:00+30nne116259 0.0 1008609
13:00+32ne23569 0.1 10061382
16:00+28ene247977 1.3 1005125
19:00+25ese239132 1.8 100754
22:00+24se22935 0.1 100827
4 july, mon
mon401:00+23sse119241 0.1 100715
04:00+23sse119222 0.0 100713
07:00+24se128995 0.0 100875
10:00+29e35685 0.0 1008865
13:00+32e445964 0.0 10061578
16:00+30ene35675 0.2 10051017
19:00+25e2590100 0.3 1008113
22:00+24se229113 0.0 100941
5 july, tue
tue501:00+24se228760 0.0 100829
04:00+23sse228541 0.0 100719
07:00+25sse118099 0.0 100953
10:00+30ene236380 0.0 1009831
13:00+32e345660 0.0 10071473
16:00+31ene4464100 0.1 10061127
19:00+25ese248978 0.1 100890
22:00+24se229163 0.0 100938